Location: Bédeille
(43.0872°N, 1.1041°E)
Time: 11:23:58
(UTC+00:00)

Cosmos 1606 Rocket - Visible Passes

Search period start: 14 May 2025 00:00
Search period end: 24 May 2025 00:00
Orbit: 598 x 624 km, 82.5° (Epoch: 13 May)

Date Brightness Start Highest point End Pass type
(mag) Time Alt. Az. Time Alt. Az. Time Alt. Az.
14 May 4.8 19:43:51 10° SE 19:47:19 23° E 19:50:48 10° NE visible
14 May 5.2 21:20:51 10° SW 21:24:50 32° WNW 21:28:50 10° N visible
15 May 4.1 19:57:57 10° SSE 20:02:04 39° E 20:06:12 10° NNE visible
15 May 6.1 21:36:42 10° WSW 21:39:55 19° WNW 21:43:10 10° NNW visible
16 May 3.5 20:12:30 10° S 20:16:53 69° E 20:21:19 10° NNE visible
16 May 6.6 21:53:29 10° W 21:55:07 12° WNW 21:56:45 10° NW visible
17 May 3.9 20:27:23 10° SSW 20:31:47 67° W 20:36:14 10° N visible
18 May 5.0 20:42:38 10° SW 20:46:46 38° WNW 20:50:56 10° N visible
19 May 6.0 20:58:18 10° SW 21:01:50 23° WNW 21:05:23 10° NNW visible
20 May 6.5 21:14:39 10° W 21:17:00 14° WNW 21:19:20 10° NW visible
21 May 3.7 19:49:20 10° S 19:53:46 81° W 19:58:14 10° N visible
22 May 4.8 20:04:27 10° SSW 20:08:42 45° WNW 20:13:00 10° N visible
23 May 5.9 20:19:58 10° SW 20:23:45 27° WNW 20:27:32 10° NNW visible
